Spokane Felts, WA

1:20 PM PDT on June 19, 2018 (GMT -0700)
Felts

Weather History for KSFF - September, 2017

Change the Weather History Date:

Wednesday, September 13, 2017

  Actual Average Record
Temperature  
Mean Temperature 64 °F 62 °F  
Max Temperature 77 °F 76 °F 92 °F (2013)
Min Temperature 51 °F 47 °F 37 °F (2003)
Degree Days  
Heating Degree Days 1 4  
Month to date heating degree days 1 41  
Since 1 July heating degree days 1 87  
Cooling Degree Days 0 1  
Month to date cooling degree days 81 23  
Year to date cooling degree days 753 399  
Growing Degree Days 15 (Base 50)    
Moisture  
Dew Point 36 °F    
Average Humidity 38    
Maximum Humidity 61    
Minimum Humidity 15    
Precipitation  
Precipitation 0.00 in 0.02 in 0.08 in (2004)
Month to date precipitation 0.00 0.32  
Year to date precipitation 12.94 11.06  
Sea Level Pressure  
Sea Level Pressure 29.78 in    
Wind  
Wind Speed 3 mph (WSW)    
Max Wind Speed 15 mph    
Max Gust Speed 19 mph    
Visibility 10 miles    
Events      
T = Trace of Precipitation, MM = Missing Value Source: NWS Daily Summary

Daily Weather History Graph

Daily Weather History Graph

Search for Another Location

Airport or City:

Astronomy

Sep. 13, 2017 Rise Set
Actual Time 6:24 AM PDT 7:04 PM PDT
Civil Twilight 5:53 AM PDT 7:35 PM PDT
Nautical Twilight 5:16 AM PDT 8:12 PM PDT
Astronomical Twilight 4:37 AM PDT 8:51 PM PDT
Moon No Moon Rise 2:44 PM PDT (9/13)
Length of Visible Light 13h 42m
Length of Day
12h 40m
Last Quarter, 44% of the Moon is Illuminated
Sep 13
Last Quarter
Sep 19
New
Sep 27
First Quarter
Oct 5
Full
Oct 12
Last Quarter

Hourly Weather History & Observations

Time (PDT) Temp. Dew Point Humidity Pressure Visibility Wind Dir Wind Speed Gust Speed Precip Events Conditions
12:53 AM 60.1 °F 39.9 °F 47% 29.74 in 10.0 mi Calm Calm - N/A   Clear
1:53 AM 59.0 °F 42.1 °F 53% 29.74 in 10.0 mi Calm Calm - N/A   Clear
2:53 AM 64.9 °F 37.0 °F 36% 29.73 in 10.0 mi WSW 8.1 mph - N/A   Clear
3:53 AM 64.0 °F 37.9 °F 38% 29.75 in 10.0 mi WSW 4.6 mph - N/A   Clear
4:53 AM 62.1 °F 39.9 °F 44% 29.77 in 10.0 mi WSW 6.9 mph - N/A   Clear
5:53 AM 59.0 °F 41.0 °F 51% 29.78 in 10.0 mi West 5.8 mph - N/A   Clear
6:53 AM 55.0 °F 43.0 °F 64% 29.80 in 10.0 mi Calm Calm - N/A   Clear
7:53 AM 59.0 °F 45.0 °F 60% 29.82 in 10.0 mi Calm Calm - N/A   Clear
8:53 AM 63.0 °F 42.1 °F 46% 29.82 in 10.0 mi SW 8.1 mph - N/A   Clear
9:53 AM 66.0 °F 41.0 °F 40% 29.83 in 10.0 mi WSW 5.8 mph - N/A   Clear
10:53 AM 69.1 °F 37.9 °F 32% 29.82 in 10.0 mi West 4.6 mph - N/A   Clear
11:53 AM 71.1 °F 37.9 °F 30% 29.82 in 10.0 mi Calm Calm - N/A   Clear
12:53 PM 72.0 °F 35.1 °F 26% 29.81 in 10.0 mi South 3.5 mph - N/A   Clear
1:53 PM 75.0 °F 37.0 °F 25% 29.79 in 10.0 mi Variable 3.5 mph - N/A   Clear
2:53 PM 75.0 °F 36.0 °F 24% 29.76 in 10.0 mi WSW 3.5 mph - N/A   Clear
4:53 PM 75.0 °F 28.0 °F 18% 29.75 in 10.0 mi WSW 5.8 mph - N/A   Clear
5:53 PM 73.9 °F 27.0 °F 18% 29.75 in 10.0 mi West 8.1 mph - N/A   Clear
6:53 PM 69.1 °F 30.9 °F 24% 29.76 in 10.0 mi Calm Calm - N/A   Clear
7:53 PM 64.9 °F 25.0 °F 22% 29.77 in 10.0 mi Calm Calm - N/A   Clear
8:53 PM 57.9 °F 27.0 °F 31% 29.77 in 10.0 mi Calm Calm - N/A   Clear
9:53 PM 55.0 °F 30.9 °F 40% 29.78 in 10.0 mi Calm Calm - N/A   Clear
10:53 PM 55.9 °F 30.0 °F 37% 29.78 in 10.0 mi Calm Calm - N/A   Clear
11:53 PM 54.0 °F 34.0 °F 47% 29.80 in 10.0 mi NNE 3.5 mph - N/A   Clear